Tracking 31027 objects as of 19-Jul-2025
HD Live streaming from Space Station
objects crossing your sky now

OBJECT V

Track OBJECT V now!
10-day predictions


NORAD ID: 51843
Int'l Code: 2022-019V
Perigee: 455.1 km
Apogee: 464.5 km
Inclination: 97.4 °
Period: 93.6 minutes
Semi major axis: 6830 km
RCS: Unknown
Launch date: February 27, 2022
Source: People's Republic of China (PRC)
Launch site: Wenchang Satellite Launch Center (WSC)
Your satellite tracking list
GALASSIA
Track 1 satellite(s)




NASA's NSSDC Master Catalog

Two Line Element Set (TLE):
1 51843U 22019V   25199.88665766  .00010241  00000-0  27777-3 0  9994
2 51843  97.3887 276.9459 0006888 283.7975  76.2503 15.37795588187904
Source of the keplerian elements: AFSPC